QPF
0.02 0.01 0.00 0.00 0.01 0.02 0.02 0.02 0.02 0.02 0.03 0.03 0.03 0.02 0.03 0.03 0.03 0.05 0.04 0.03 0.02 0.02 0.02 0.03 0.04 0.06 0.08 0.07 0.08 0.07 0.06 0.08 0.07 0.05 0.04 0.03 0.04 0.02 0.02 0.02 0.02 0.02 0.02
0.02 0.01 0.01 0.00 0.00 0.01 0.02 0.02 0.02 0.02 0.02 0.02 0.02 0.03 0.02 0.02 0.02 0.02 0.03 0.02 0.02 0.02 0.01 0.02 0.03 0.05 0.08 0.10 0.10 0.09 0.08 0.09 0.09 0.08 0.05 0.04 0.03 0.03 0.04 0.03 0.02 0.02 0.02
0.01 0.01 0.01 0.01 0.01 0.02 0.03 0.03 0.03 0.04 0.04 0.03 0.03 0.02 0.02 0.02 0.02 0.02 0.02 0.02 0.02 0.01 0.01 0.02 0.03 0.04 0.06 0.07 0.07 0.08 0.10 0.11 0.09 0.08 0.06 0.05 0.03 0.03 0.03 0.03 0.03 0.03 0.02
0.01 0.00 0.00 0.01 0.01 0.01 0.02 0.01 0.01 0.03 0.04 0.03 0.02 0.02 0.02 0.02 0.02 0.02 0.02 0.02 0.02 0.02 0.02 0.02 0.03 0.04 0.05 0.06 0.05 0.06 0.07 0.07 0.08 0.07 0.05 0.04 0.04 0.04 0.04 0.04 0.04 0.04 0.03
0.00 0.00 0.00 0.00 0.00 0.00 0.01 0.01 0.01 0.02 0.03 0.03 0.03 0.02 0.02 0.02 0.01 0.01 0.02 0.02 0.03 0.03 0.02 0.02 0.02 0.03 0.03 0.03 0.03 0.04 0.05 0.06 0.06 0.07 0.06 0.05 0.05 0.05 0.05 0.04 0.05 0.06 0.06
0.00 0.00 0.00 0.00 0.00 0.00 0.01 0.01 0.01 0.02 0.03 0.04 0.03 0.02 0.02 0.01 0.01 0.01 0.01 0.02 0.02 0.02 0.02 0.02 0.02 0.01 0.02 0.02 0.02 0.03 0.04 0.05 0.05 0.07 0.09 0.09 0.08 0.06 0.06 0.06 0.06 0.06 0.07
0.00 0.00 0.00 0.00 0.00 0.00 0.00 0.01 0.02 0.03 0.04 0.04 0.03 0.03 0.02 0.01 0.01 0.01 0.01 0.01 0.01 0.01 0.02 0.02 0.02 0.01 0.02 0.02 0.02 0.03 0.03 0.04 0.05 0.06 0.06 0.08 0.10 0.12 0.12 0.11 0.09 0.07 0.05
0.00 0.00 0.00 0.00 0.00 0.00 0.00 0.01 0.02 0.03 0.04 0.05 0.04 0.03 0.02 0.02 0.01 0.01 0.01 0.01 0.02 0.02 0.01 0.02 0.03 0.03 0.03 0.04 0.04 0.05 0.04 0.03 0.04 0.04 0.04 0.04 0.06 0.09 0.12 0.14 0.15 0.13 0.09
0.00 0.00 0.00 0.00 0.00 0.00 0.00 0.00 0.01 0.02 0.04 0.05 0.04 0.03 0.02 0.01 0.01 0.01 0.01 0.01 0.02 0.02 0.02 0.02 0.03 0.03 0.04 0.04 0.04 0.03 0.03 0.03 0.04 0.04 0.04 0.04 0.05 0.05 0.05 0.06 0.10 0.12 0.11
0.00 0.01 0.01 0.01 0.01 0.01 0.01 0.01 0.01 0.02 0.03 0.03 0.02 0.02 0.02 0.02 0.02 0.01 0.02 0.03 0.02 0.03 0.03 0.03 0.03 0.03 0.03 0.04 0.03 0.03 0.04 0.04 0.04 0.04 0.06 0.06 0.05 0.04 0.03 0.04 0.07 0.10 0.10
0.00 0.00 0.01 0.01 0.01 0.02 0.02 0.03 0.02 0.02 0.02 0.02 0.02 0.02 0.03 0.04 0.03 0.03 0.05 0.05 0.03 0.04 0.03 0.03 0.04 0.03 0.03 0.03 0.03 0.03 0.05 0.06 0.05 0.05 0.06 0.06 0.06 0.05 0.04 0.05 0.06 0.08 0.10
0.00 0.00 0.00 0.01 0.01 0.01 0.02 0.02 0.02 0.02 0.02 0.02 0.03 0.04 0.05 0.06 0.05 0.05 0.06 0.06 0.06 0.05 0.04 0.04 0.04 0.03 0.04 0.04 0.04 0.04 0.06 0.06 0.06 0.06 0.06 0.04 0.04 0.04 0.04 0.05 0.05 0.06 0.07
0.00 0.00 0.01 0.01 0.01 0.01 0.01 0.01 0.01 0.01 0.01 0.02 0.03 0.04 0.05 0.05 0.05 0.04 0.04 0.03 0.03 0.03 0.03 0.04 0.04 0.04 0.04 0.04 0.04 0.04 0.04 0.05 0.06 0.05 0.03 0.03 0.02 0.03 0.04 0.04 0.05 0.05 0.05
0.00 0.00 0.01 0.01 0.01 0.01 0.01 0.01 0.01 0.01 0.01 0.01 0.01 0.03 0.03 0.03 0.02 0.02 0.03 0.03 0.03 0.03 0.03 0.04 0.03 0.02 0.02 0.02 0.01 0.02 0.02 0.03 0.04 0.03 0.03 0.02 0.03 0.03 0.04 0.04 0.05 0.06 0.06
0.00 0.01 0.01 0.01 0.01 0.01 0.02 0.02 0.02 0.02 0.02 0.02 0.02 0.02 0.02 0.02 0.02 0.03 0.03 0.03 0.02 0.02 0.02 0.02 0.02 0.01 0.01 0.01 0.01 0.02 0.02 0.02 0.03 0.04 0.04 0.04 0.05 0.04 0.04 0.05 0.07 0.07 0.07
0.01 0.01 0.01 0.01 0.01 0.02 0.02 0.02 0.02 0.02 0.02 0.02 0.02 0.02 0.02 0.02 0.03 0.02 0.02 0.01 0.02 0.02 0.02 0.02 0.01 0.02 0.02 0.01 0.02 0.02 0.01 0.01 0.02 0.03 0.04 0.05 0.05 0.05 0.05 0.06 0.07 0.06 0.06
0.02 0.02 0.03 0.02 0.02 0.02 0.02 0.02 0.01 0.02 0.02 0.02 0.02 0.02 0.02 0.03 0.03 0.02 0.02 0.02 0.02 0.02 0.02 0.02 0.01 0.02 0.02 0.02 0.02 0.03 0.02 0.02 0.02 0.03 0.05 0.05 0.05 0.05 0.04 0.04 0.04 0.05 0.06
0.04 0.03 0.03 0.03 0.03 0.03 0.02 0.02 0.01 0.01 0.01 0.01 0.01 0.02 0.02 0.02 0.02 0.02 0.01 0.02 0.02 0.02 0.02 0.01 0.01 0.02 0.02 0.02 0.03 0.03 0.03 0.03 0.02 0.03 0.03 0.03 0.04 0.04 0.03 0.04 0.04 0.04 0.05
0.06 0.04 0.04 0.04 0.04 0.03 0.02 0.02 0.01 0.01 0.01 0.01 0.01 0.01 0.01 0.01 0.01 0.02 0.01 0.01 0.01 0.01 0.01 0.01 0.01 0.01 0.02 0.02 0.03 0.03 0.03 0.03 0.02 0.02 0.02 0.03 0.04 0.05 0.04 0.04 0.04 0.05 0.05
0.04 0.04 0.05 0.04 0.03 0.03 0.02 0.02 0.01 0.01 0.01 0.01 0.01 0.01 0.02 0.01 0.01 0.01 0.01 0.01 0.01 0.01 0.01 0.01 0.01 0.01 0.02 0.02 0.03 0.03 0.03 0.03 0.02 0.02 0.02 0.02 0.02 0.02 0.03 0.03 0.03 0.04 0.04
0.04 0.04 0.04 0.04 0.02 0.02 0.02 0.02 0.01 0.02 0.02 0.02 0.01 0.01 0.01 0.01 0.01 0.01 0.01 0.01 0.01 0.01 0.01 0.01 0.01 0.01 0.01 0.02 0.03 0.03 0.03 0.03 0.03 0.02 0.02 0.02 0.02 0.02 0.02 0.02 0.02 0.02 0.03
0.04 0.04 0.03 0.03 0.02 0.02 0.02 0.02 0.02 0.02 0.02 0.02 0.02 0.02 0.01 0.01 0.01 0.01 0.01 0.01 0.01 0.01 0.02 0.02 0.01 0.01 0.01 0.02 0.03 0.04 0.04 0.04 0.04 0.03 0.03 0.03 0.02 0.03 0.03 0.03 0.03 0.02 0.02
0.02 0.03 0.03 0.03 0.02 0.02 0.02 0.02 0.02 0.02 0.02 0.02 0.02 0.01 0.01 0.01 0.01 0.01 0.01 0.01 0.01 0.01 0.01 0.02 0.02 0.02 0.02 0.02 0.02 0.03 0.04 0.04 0.04 0.04 0.04 0.04 0.04 0.04 0.03 0.03 0.02 0.02 0.02
0.02 0.02 0.03 0.02 0.02 0.02 0.02 0.03 0.03 0.03 0.03 0.02 0.02 0.02 0.02 0.02 0.02 0.01 0.01 0.01 0.01 0.01 0.01 0.01 0.02 0.02 0.02 0.02 0.02 0.03 0.04 0.04 0.05 0.05 0.05 0.05 0.04 0.03 0.03 0.02 0.02 0.02 0.03
0.02 0.02 0.02 0.02 0.02 0.02 0.03 0.03 0.03 0.03 0.03 0.03 0.03 0.04 0.05 0.04 0.04 0.03 0.03 0.03 0.02 0.02 0.02 0.02 0.02 0.02 0.02 0.02 0.03 0.03 0.03 0.03 0.03 0.03 0.03 0.02 0.02 0.02 0.02 0.02 0.02 0.03 0.03
0.01 0.01 0.01 0.01 0.02 0.02 0.02 0.02 0.02 0.02 0.02 0.02 0.03 0.03 0.04 0.04 0.03 0.02 0.02 0.02 0.03 0.03 0.03 0.03 0.03 0.03 0.03 0.03 0.03 0.03 0.02 0.02 0.02 0.02 0.01 0.01 0.02 0.02 0.02 0.02 0.03 0.03 0.04
MSLP
1011.25 1012.06 1012.85 1013.59 1014.26 1014.87 1015.40 1015.87 1016.30 1016.70 1017.08 1017.44 1017.77 1018.06 1018.29 1018.46 1018.57 1018.63 1018.64 1018.64 1018.63 1018.61 1018.59 1018.56 1018.48 1018.35 1018.15 1017.86 1017.51 1017.10 1016.66 1016.24 1015.85 1015.52 1015.25 1015.03 1014.85 1014.66 1014.45 1014.18 1013.85 1013.45 1013.01
1011.42 1012.20 1012.97 1013.71 1014.38 1015.00 1015.54 1016.04 1016.49 1016.91 1017.32 1017.70 1018.06 1018.37 1018.62 1018.81 1018.94 1019.01 1019.03 1019.03 1019.01 1019.00 1018.98 1018.95 1018.90 1018.79 1018.62 1018.37 1018.06 1017.68 1017.27 1016.86 1016.46 1016.09 1015.77 1015.48 1015.20 1014.91 1014.58 1014.21 1013.77 1013.27 1012.75
1011.62 1012.38 1013.13 1013.86 1014.54 1015.17 1015.73 1016.25 1016.74 1017.19 1017.63 1018.04 1018.42 1018.75 1019.03 1019.24 1019.37 1019.44 1019.47 1019.45 1019.43 1019.40 1019.37 1019.34 1019.28 1019.19 1019.05 1018.83 1018.56 1018.22 1017.84 1017.43 1017.03 1016.64 1016.26 1015.90 1015.54 1015.15 1014.72 1014.24 1013.70 1013.11 1012.50
1011.85 1012.60 1013.35 1014.07 1014.76 1015.39 1015.98 1016.52 1017.04 1017.52 1017.99 1018.43 1018.84 1019.20 1019.49 1019.71 1019.85 1019.92 1019.94 1019.91 1019.87 1019.82 1019.76 1019.71 1019.65 1019.56 1019.43 1019.23 1018.98 1018.66 1018.30 1017.91 1017.50 1017.08 1016.67 1016.25 1015.81 1015.35 1014.84 1014.27 1013.65 1012.99 1012.31
1012.10 1012.86 1013.61 1014.33 1015.02 1015.66 1016.26 1016.82 1017.35 1017.87 1018.36 1018.83 1019.26 1019.64 1019.95 1020.18 1020.33 1020.40 1020.40 1020.36 1020.29 1020.22 1020.14 1020.07 1019.98 1019.88 1019.74 1019.55 1019.30 1019.00 1018.64 1018.24 1017.82 1017.38 1016.93 1016.46 1015.98 1015.46 1014.89 1014.27 1013.61 1012.90 1012.19
1012.37 1013.14 1013.90 1014.62 1015.30 1015.93 1016.53 1017.10 1017.64 1018.17 1018.68 1019.16 1019.61 1020.00 1020.33 1020.57 1020.72 1020.79 1020.79 1020.74 1020.66 1020.56 1020.46 1020.36 1020.26 1020.13 1019.98 1019.78 1019.52 1019.20 1018.83 1018.42 1017.97 1017.50 1017.02 1016.52 1016.00 1015.45 1014.87 1014.24 1013.56 1012.85 1012.13
1012.61 1013.42 1014.19 1014.90 1015.56 1016.18 1016.76 1017.31 1017.85 1018.37 1018.88 1019.37 1019.83 1020.23 1020.56 1020.81 1020.97 1021.05 1021.05 1021.00 1020.90 1020.80 1020.68 1020.56 1020.44 1020.30 1020.12 1019.90 1019.62 1019.28 1018.88 1018.44 1017.96 1017.45 1016.94 1016.41 1015.88 1015.33 1014.75 1014.14 1013.49 1012.81 1012.11
1012.80 1013.65 1014.42 1015.13 1015.76 1016.35 1016.90 1017.42 1017.93 1018.44 1018.94 1019.43 1019.89 1020.29 1020.63 1020.89 1021.06 1021.14 1021.15 1021.10 1021.01 1020.90 1020.78 1020.65 1020.52 1020.36 1020.16 1019.92 1019.61 1019.24 1018.80 1018.32 1017.80 1017.26 1016.71 1016.17 1015.63 1015.09 1014.54 1013.97 1013.37 1012.75 1012.09
1012.90 1013.79 1014.57 1015.26 1015.86 1016.41 1016.91 1017.40 1017.89 1018.38 1018.87 1019.35 1019.81 1020.22 1020.57 1020.83 1021.01 1021.10 1021.12 1021.07 1020.99 1020.88 1020.76 1020.63 1020.49 1020.32 1020.10 1019.83 1019.50 1019.09 1018.62 1018.09 1017.52 1016.94 1016.36 1015.80 1015.26 1014.74 1014.23 1013.72 1013.19 1012.63 1012.03
1012.89 1013.81 1014.59 1015.26 1015.83 1016.34 1016.81 1017.27 1017.74 1018.22 1018.71 1019.20 1019.66 1020.08 1020.44 1020.71 1020.89 1020.99 1021.01 1020.97 1020.89 1020.78 1020.65 1020.52 1020.36 1020.18 1019.95 1019.66 1019.29 1018.85 1018.34 1017.77 1017.16 1016.54 1015.93 1015.35 1014.82 1014.32 1013.85 1013.40 1012.94 1012.45 1011.92
1012.76 1013.69 1014.48 1015.13 1015.67 1016.16 1016.61 1017.06 1017.52 1018.01 1018.52 1019.03 1019.52 1019.96 1020.33 1020.61 1020.80 1020.89 1020.91 1020.85 1020.76 1020.63 1020.49 1020.34 1020.16 1019.96 1019.71 1019.39 1019.00 1018.53 1017.98 1017.37 1016.73 1016.07 1015.44 1014.85 1014.31 1013.83 1013.41 1013.01 1012.62 1012.21 1011.75
1012.53 1013.46 1014.23 1014.87 1015.40 1015.88 1016.33 1016.79 1017.29 1017.81 1018.36 1018.91 1019.44 1019.91 1020.30 1020.59 1020.78 1020.86 1020.86 1020.77 1020.64 1020.48 1020.30 1020.11 1019.90 1019.66 1019.38 1019.04 1018.62 1018.12 1017.55 1016.91 1016.24 1015.57 1014.91 1014.32 1013.78 1013.33 1012.93 1012.59 1012.26 1011.91 1011.53
1012.21 1013.14 1013.90 1014.52 1015.06 1015.54 1016.01 1016.51 1017.05 1017.64 1018.25 1018.86 1019.44 1019.95 1020.37 1020.68 1020.86 1020.92 1020.87 1020.74 1020.55 1020.33 1020.09 1019.84 1019.58 1019.30 1018.98 1018.61 1018.16 1017.64 1017.05 1016.41 1015.73 1015.05 1014.39 1013.79 1013.27 1012.84 1012.47 1012.17 1011.89 1011.60 1011.27
1011.86 1012.77 1013.51 1014.13 1014.67 1015.17 1015.69 1016.24 1016.84 1017.49 1018.17 1018.85 1019.49 1020.06 1020.50 1020.82 1020.99 1021.02 1020.92 1020.73 1020.48 1020.18 1019.86 1019.54 1019.21 1018.87 1018.51 1018.11 1017.64 1017.12 1016.53 1015.89 1015.22 1014.54 1013.91 1013.33 1012.82 1012.41 1012.07 1011.80 1011.55 1011.30 1011.01
1011.53 1012.41 1013.13 1013.75 1014.29 1014.82 1015.37 1015.97 1016.63 1017.35 1018.10 1018.85 1019.54 1020.14 1020.62 1020.94 1021.09 1021.09 1020.95 1020.69 1020.36 1019.98 1019.58 1019.19 1018.79 1018.40 1018.00 1017.57 1017.09 1016.57 1016.00 1015.38 1014.75 1014.11 1013.50 1012.95 1012.48 1012.09 1011.77 1011.51 1011.29 1011.06 1010.78
1011.24 1012.09 1012.80 1013.40 1013.95 1014.49 1015.06 1015.70 1016.41 1017.18 1017.98 1018.77 1019.50 1020.13 1020.62 1020.94 1021.08 1021.05 1020.86 1020.55 1020.15 1019.71 1019.24 1018.78 1018.33 1017.90 1017.47 1017.03 1016.56 1016.06 1015.53 1014.96 1014.37 1013.78 1013.22 1012.71 1012.27 1011.90 1011.60 1011.35 1011.13 1010.88 1010.59
1011.02 1011.85 1012.53 1013.12 1013.66 1014.20 1014.78 1015.43 1016.15 1016.93 1017.74 1018.55 1019.30 1019.93 1020.42 1020.74 1020.87 1020.82 1020.61 1020.26 1019.83 1019.34 1018.84 1018.34 1017.86 1017.41 1016.98 1016.55 1016.11 1015.65 1015.16 1014.65 1014.13 1013.60 1013.10 1012.63 1012.23 1011.88 1011.58 1011.32 1011.07 1010.79 1010.46
1010.86 1011.67 1012.33 1012.90 1013.42 1013.94 1014.50 1015.13 1015.83 1016.59 1017.39 1018.18 1018.91 1019.53 1020.01 1020.31 1020.44 1020.38 1020.16 1019.82 1019.38 1018.89 1018.38 1017.89 1017.42 1016.98 1016.56 1016.17 1015.77 1015.37 1014.94 1014.50 1014.04 1013.57 1013.13 1012.70 1012.32 1011.98 1011.68 1011.39 1011.10 1010.77 1010.38
1010.73 1011.52 1012.17 1012.71 1013.21 1013.70 1014.22 1014.80 1015.46 1016.17 1016.92 1017.65 1018.34 1018.93 1019.39 1019.68 1019.80 1019.76 1019.56 1019.24 1018.83 1018.38 1017.91 1017.45 1017.02 1016.63 1016.26 1015.92 1015.58 1015.24 1014.88 1014.50 1014.10 1013.69 1013.28 1012.89 1012.52 1012.18 1011.85 1011.53 1011.18 1010.79 1010.33
1010.56 1011.34 1011.99 1012.52 1012.99 1013.44 1013.92 1014.45 1015.04 1015.68 1016.36 1017.03 1017.65 1018.20 1018.62 1018.90 1019.03 1019.01 1018.85 1018.58 1018.23 1017.85 1017.45 1017.07 1016.71 1016.39 1016.09 1015.81 1015.54 1015.26 1014.96 1014.63 1014.27 1013.90 1013.52 1013.14 1012.76 1012.40 1012.04 1011.67 1011.27 1010.81 1010.28
1010.30 1011.09 1011.74 1012.27 1012.72 1013.15 1013.59 1014.06 1014.59 1015.16 1015.75 1016.35 1016.91 1017.40 1017.79 1018.06 1018.20 1018.20 1018.10 1017.90 1017.63 1017.34 1017.03 1016.75 1016.48 1016.25 1016.03 1015.82 1015.61 1015.39 1015.13 1014.83 1014.50 1014.14 1013.76 1013.37 1012.97 1012.57 1012.17 1011.75 1011.30 1010.80 1010.22
1009.92 1010.72 1011.38 1011.92 1012.37 1012.79 1013.20 1013.64 1014.11 1014.62 1015.15 1015.68 1016.17 1016.62 1016.97 1017.23 1017.38 1017.42 1017.37 1017.24 1017.07 1016.87 1016.67 1016.49 1016.32 1016.18 1016.04 1015.91 1015.75 1015.56 1015.33 1015.05 1014.72 1014.35 1013.94 1013.52 1013.08 1012.64 1012.19 1011.73 1011.24 1010.71 1010.11
1009.40 1010.21 1010.88 1011.44 1011.92 1012.34 1012.75 1013.17 1013.62 1014.08 1014.57 1015.04 1015.49 1015.89 1016.22 1016.47 1016.63 1016.71 1016.71 1016.65 1016.57 1016.46 1016.37 1016.28 1016.21 1016.15 1016.09 1016.01 1015.89 1015.73 1015.51 1015.22 1014.87 1014.46 1014.01 1013.54 1013.05 1012.56 1012.07 1011.58 1011.07 1010.53 1009.95
1008.76 1009.58 1010.27 1010.85 1011.36 1011.81 1012.24 1012.67 1013.11 1013.56 1014.02 1014.47 1014.89 1015.26 1015.57 1015.81 1015.98 1016.08 1016.13 1016.14 1016.12 1016.10 1016.09 1016.09 1016.10 1016.11 1016.11 1016.08 1015.99 1015.84 1015.61 1015.30 1014.91 1014.46 1013.95 1013.42 1012.88 1012.34 1011.81 1011.30 1010.79 1010.28 1009.74
1008.08 1008.90 1009.59 1010.20 1010.73 1011.21 1011.68 1012.13 1012.59 1013.05 1013.50 1013.94 1014.35 1014.71 1015.01 1015.25 1015.43 1015.55 1015.64 1015.69 1015.73 1015.78 1015.84 1015.91 1015.98 1016.05 1016.10 1016.10 1016.03 1015.88 1015.63 1015.28 1014.85 1014.34 1013.77 1013.18 1012.58 1012.00 1011.45 1010.93 1010.44 1009.98 1009.51
1007.45 1008.23 1008.92 1009.54 1010.09 1010.61 1011.10 1011.59 1012.07 1012.55 1013.02 1013.46 1013.87 1014.23 1014.53 1014.78 1014.97 1015.11 1015.22 1015.31 1015.40 1015.49 1015.61 1015.73 1015.85 1015.97 1016.05 1016.07 1016.00 1015.84 1015.57 1015.19 1014.71 1014.15 1013.52 1012.87 1012.22 1011.60 1011.03 1010.52 1010.06 1009.66 1009.28
Thickness
5788 5784 5781 5777 5774 5771 5768 5765 5762 5759 5756 5753 5750 5747 5745 5743 5742 5740 5739 5737 5736 5735 5734 5733 5731 5731 5732 5732 5731 5730 5728 5725 5721 5725 5728 5726 5721 5719 5717 5716 5716 5714 5713
5786 5782 5778 5775 5772 5769 5765 5763 5759 5756 5754 5750 5747 5744 5741 5740 5738 5735 5734 5733 5731 5730 5729 5728 5727 5728 5725 5725 5724 5724 5723 5722 5718 5716 5719 5719 5716 5714 5713 5711 5713 5713 5712
5785 5779 5775 5772 5770 5766 5762 5759 5756 5753 5750 5747 5743 5740 5738 5735 5733 5731 5729 5728 5726 5725 5724 5723 5722 5721 5719 5720 5718 5719 5719 5719 5716 5714 5713 5714 5712 5711 5708 5708 5709 5707 5708
5782 5777 5772 5769 5766 5763 5759 5756 5753 5749 5746 5743 5740 5737 5734 5731 5729 5726 5725 5723 5722 5721 5720 5719 5718 5716 5714 5713 5713 5712 5712 5711 5710 5709 5709 5708 5706 5705 5702 5702 5702 5703 5702
5777 5773 5769 5766 5763 5759 5756 5752 5750 5747 5744 5740 5737 5733 5730 5728 5725 5721 5719 5719 5717 5715 5714 5713 5713 5710 5708 5706 5708 5706 5705 5704 5705 5704 5703 5702 5700 5697 5696 5698 5697 5697 5697
5772 5768 5765 5762 5758 5755 5752 5748 5745 5742 5739 5735 5732 5728 5725 5724 5718 5714 5711 5712 5711 5709 5708 5707 5707 5705 5702 5699 5698 5697 5696 5696 5696 5695 5695 5694 5691 5691 5691 5691 5690 5689 5689
5767 5763 5761 5757 5753 5750 5749 5745 5741 5737 5734 5730 5727 5724 5720 5716 5711 5707 5704 5705 5705 5703 5701 5700 5702 5702 5697 5696 5693 5691 5690 5688 5687 5687 5688 5687 5687 5686 5684 5684 5682 5682 5682
5761 5758 5756 5752 5749 5746 5743 5739 5736 5734 5730 5726 5723 5720 5716 5711 5705 5701 5699 5699 5699 5698 5696 5695 5693 5692 5691 5687 5687 5687 5686 5685 5683 5682 5683 5682 5682 5680 5678 5677 5677 5676 5677
5756 5753 5751 5747 5743 5740 5737 5734 5732 5728 5725 5722 5718 5715 5711 5706 5701 5697 5692 5695 5694 5693 5691 5690 5687 5685 5680 5677 5679 5679 5679 5678 5677 5675 5674 5674 5673 5672 5671 5671 5671 5670 5671
5752 5749 5746 5743 5739 5736 5733 5730 5727 5723 5720 5717 5714 5710 5707 5703 5696 5691 5687 5691 5689 5688 5687 5685 5681 5677 5673 5670 5671 5671 5670 5671 5671 5671 5669 5668 5668 5667 5665 5664 5666 5665 5666
5748 5745 5742 5738 5735 5732 5728 5724 5721 5718 5715 5711 5708 5705 5702 5698 5692 5687 5683 5684 5684 5682 5682 5681 5678 5670 5666 5664 5663 5664 5662 5662 5664 5665 5665 5664 5664 5663 5662 5661 5661 5660 5659
5742 5739 5736 5733 5731 5728 5723 5719 5716 5713 5709 5705 5702 5700 5697 5693 5687 5682 5678 5676 5675 5676 5675 5675 5672 5664 5661 5658 5658 5656 5655 5654 5658 5659 5658 5658 5658 5658 5658 5656 5655 5653 5652
5734 5731 5729 5727 5724 5721 5717 5713 5710 5707 5705 5702 5699 5695 5693 5689 5683 5677 5673 5670 5668 5668 5669 5665 5661 5658 5656 5655 5652 5650 5650 5652 5653 5652 5652 5652 5652 5652 5651 5650 5649 5646 5644
5726 5724 5722 5719 5717 5714 5712 5710 5706 5703 5700 5698 5694 5691 5688 5685 5681 5675 5670 5667 5663 5662 5662 5659 5655 5653 5652 5650 5649 5648 5648 5648 5646 5646 5646 5646 5646 5646 5644 5644 5642 5641 5639
5720 5719 5716 5715 5712 5708 5706 5702 5700 5697 5694 5689 5688 5685 5682 5678 5673 5665 5663 5663 5661 5659 5655 5655 5655 5654 5651 5650 5648 5646 5645 5643 5641 5641 5640 5640 5639 5639 5638 5637 5634 5633 5631
5714 5712 5711 5710 5707 5704 5700 5695 5688 5687 5682 5679 5676 5674 5673 5667 5661 5658 5654 5652 5650 5648 5648 5651 5650 5649 5648 5646 5644 5642 5641 5638 5636 5635 5634 5633 5632 5631 5630 5629 5628 5625 5624
5707 5706 5705 5704 5701 5699 5696 5691 5686 5679 5674 5671 5668 5665 5661 5657 5654 5650 5647 5645 5643 5641 5644 5646 5645 5644 5642 5640 5638 5636 5635 5633 5630 5628 5627 5626 5625 5624 5623 5622 5620 5618 5617
5700 5699 5697 5696 5695 5693 5691 5687 5683 5679 5675 5670 5663 5657 5654 5650 5647 5644 5641 5639 5641 5639 5641 5640 5639 5637 5635 5633 5631 5629 5627 5626 5623 5621 5620 5619 5618 5616 5615 5614 5613 5611 5611
5694 5693 5690 5689 5688 5687 5685 5682 5679 5675 5671 5666 5661 5655 5647 5644 5640 5638 5635 5639 5640 5638 5636 5634 5632 5630 5628 5625 5623 5621 5620 5618 5616 5614 5613 5611 5610 5608 5607 5607 5606 5603 5602
5685 5681 5680 5681 5682 5680 5678 5675 5673 5669 5666 5662 5657 5653 5647 5643 5642 5639 5636 5636 5635 5633 5630 5628 5626 5623 5620 5618 5615 5613 5612 5610 5609 5607 5607 5605 5603 5602 5601 5599 5599 5598 5597
5679 5676 5672 5673 5674 5672 5671 5668 5665 5662 5659 5656 5653 5648 5639 5641 5640 5637 5634 5632 5629 5627 5624 5622 5619 5616 5614 5611 5609 5606 5604 5604 5601 5599 5598 5597 5596 5595 5594 5593 5591 5590 5589
5671 5669 5668 5667 5666 5663 5662 5660 5658 5655 5652 5649 5646 5642 5633 5635 5634 5632 5629 5626 5624 5621 5618 5615 5612 5609 5606 5604 5602 5600 5598 5596 5594 5591 5590 5590 5588 5588 5587 5586 5584 5583 5582
5664 5662 5661 5660 5659 5654 5653 5653 5651 5648 5645 5643 5639 5636 5632 5630 5628 5625 5623 5620 5617 5614 5610 5607 5605 5603 5600 5597 5595 5592 5590 5588 5585 5583 5582 5582 5582 5581 5580 5578 5577 5576 5576
5656 5656 5654 5653 5651 5649 5647 5646 5644 5641 5639 5636 5633 5630 5627 5623 5622 5619 5616 5613 5609 5606 5603 5600 5598 5595 5592 5590 5588 5585 5582 5578 5576 5575 5573 5574 5574 5574 5573 5572 5570 5569 5568
5649 5648 5647 5646 5644 5642 5641 5639 5637 5634 5632 5629 5626 5623 5620 5617 5614 5612 5609 5606 5602 5599 5596 5593 5591 5588 5585 5583 5580 5578 5574 5570 5567 5566 5566 5566 5567 5566 5566 5565 5564 5562 5561
5641 5641 5640 5639 5637 5635 5633 5631 5628 5626 5624 5622 5619 5616 5613 5610 5607 5604 5601 5598 5595 5592 5589 5586 5583 5580 5577 5575 5572 5568 5565 5563 5561 5559 5559 5560 5560 5560 5559 5558 5557 5556 5555